User: anonymous   Login
Location: Caltech
(34.1382°N, 118.1253°W)
Time: 06:25:46
(UTC-07:00)
Language:

Iridium 14 - Orbit

View from above orbital plane
View from above orbital plane
View from above satellite
View from above satellite

Ground track
Ground track

The orbit data is extracted from the following two-line orbital elements,

1 25777U 99032A   16208.48229206  .00000080  00000-0  21375-4 0  9991
2 25777  86.3969   0.1009 0002140  87.0522 331.6787 14.34213461907990
Epoch (UTC): 26 July 2016 11:34:30
Eccentricity: 0.0002140
inclination: 86.3969°
perigee height: 776 km
apogee height: 779 km
right ascension of ascending node: 0.1009°
argument of perigee: 87.0522°
revolutions per day: 14.34213461
mean anomaly at epoch: 331.6787°
orbit number at epoch: 90799

The dashed part of the orbit path shows where the satellite is in the earth's shadow,  

DLR